Regional Weather Roundup
Issued by NWS Cleveland, OH

Home | Current Version | Previous Version | Text Only | Print | Product List | Glossary Off
Versions: 1 2 3 4 5 6 7 8 9 10 11 12 13 14 15 16 17 18 19 20 21 22 23 24 25 26 27 28 29 30 31 32 33 34 35 36 37 38 39 40 41 42 43 44 45 46 47 48 49 50

000
ASUS41 KCLE 290602
RWRCLE
OHIO REGIONAL WEATHER ROUNDUP
NATIONAL WEATHER SERVICE CLEVELAND, OH
200 AM EDT FRI JUL 29 2016

NOTE: "FAIR" INDICATES FEW OR NO CLOUDS BELOW 12,000 FEET WITH NO
SIGNIFICANT WEATHER AND/OR OBSTRUCTIONS TO VISIBILITY.

OHZ001>008-015>018-024>027-034-035-043-044-290700-
   NORTHWEST OHIO

CITY           SKY/WX    TMP DP  RH WIND       PRES   REMARKS
DEFIANCE       PTCLDY    73  65  75 CALM      29.93R
FINDLAY        CLEAR     73  64  73 N3        29.92R
TOLEDO EXPRESS CLOUDY    73  67  81 NE6       29.92R
TOLEDO EXEC    PTCLDY    75  66  73 N5        29.94R
LIMA           PTCLDY    69  66  90 CALM      29.92R
$$

OHZ009>014-019>023-028>033-038-089-290700-
   NORTHEAST OHIO

CITY           SKY/WX    TMP DP  RH WIND       PRES   REMARKS
CLE-HOPKINS    PTCLDY    69  65  86 SW3       29.92F
CLE-LAKEFRONT  CLEAR     75  69  81 CALM      29.89F
CUY CO. ARPT   NOT AVBL
LORAIN-ELYRIA  CLEAR     63  60  90 CALM      29.92S
ASHTABULA      CLEAR     65  65 100 CALM      29.92S
AKRON-CANTON   PTCLDY    68  65  90 S5        29.92F
WOOSTER        FOG       65  64  97 CALM      29.92F VSB 1/4
MANSFIELD      CLEAR     67  66  97 CALM      29.93S
YOUNGSTOWN     MOCLDY    65  62  90 SE3       29.92S
$$

OHZ042-051>053-060>062-070>072-077>081-290700-
  SOUTHWEST OHIO

CITY           SKY/WX    TMP DP  RH WIND       PRES   REMARKS
CINC-COVINGTON FOG       73  73 100 SW3       29.93R VSB 1
CINC-LUNKEN    CLEAR     71  71 100 CALM      29.92R
HAMILTON       CLEAR     70  68  93 CALM      29.92S
DAYTON         PTCLDY    72  66  81 SW6       29.93S
WRIGHT-PAT AFB NOT AVBL
DAYTON GENERAL CLEAR     74  69  85 SW3       29.92S
WILMINGTON     CLEAR     70  70 100 SW5       29.92S
$$

OHZ036-037-039>041-045>050-054>059-063>069-073>076-082>088-290700-
  CENTRAL AND SOUTHEAST OHIO

CITY           SKY/WX    TMP DP  RH WIND       PRES   REMARKS
COLUMBUS       PTCLDY    70  70 100 CALM      29.91R FOG
OSU AIRPORT    CLEAR     67  67 100 CALM      29.91R FOG
BOLTON FIELD   FOG       66  66 100 SW3       29.92S VSB 1/2
RICKENBACK AFB CLEAR     67  67 100 CALM      29.91S FOG
NEWARK         FOG       70  69  97 CALM      29.90S VSB 3/4
MARION         CLEAR     70  67  90 W3        29.92R
LANCASTER      CLEAR     69  68  96 CALM      29.91F
ZANESVILLE     FOG       73  70  90 S3        29.91S VSB 1/2
NEW PHILLY     FOG       72  69  90 SE3       29.92F VSB 1/4
$$



USA.gov is the U.S. government's official web portal to all federal, state and local government web resources and services.